ONEWEB-0688, 61596

Orbit data source: Space-Track

ONEWEB-0688, 61596 is a payload satellite owned by Eut. One Web (UK) in LEO that was launched on Sun, 20 Oct 2024 UTC via an FALCON 9 launch vehicle from the Air Force Western Test Range (AFWTR). Payload-class satellites include a variety of spacecraft equipped with specific instruments for various scientific and technological missions. These include communications satellites like Starlink; space stations such as the ISS; scientific satellites like the Hubble; Earth observation satellites from companies like Planet Labs, Umbra, and HawkEye 360; GPS; miniature CubeSats for education and research; and military/defense satellites.

Loading next visibility...
Identifier
61596, 2024-188C
Orbit
LEO
Country
Flag of UKUK
Related business
Manufacturer
One Web
Mission
Operational Commercial Communications
Bus & Motor
ARROW, Unknown motor
Mass
148 kg wet, ~140 kg dry
Launch date (UTC)
2024-10-20 (1 year ago)
Launch vehicle
FALCON 9
Launch site
Air Force Western Test Range (AFWTR)
Object type
Payload
Rocket body
Debris
Shape & HBR
Trap Box + 2 Pan, 6.7 m
Radar Cross Section
3.464 m², Large (>1 m²)

Expand to show TLE details & history
Last TLE update: 16 hours ago

TLE from 16 hours ago
0 ONEWEB-0688
1 61596U 24188C   26035.52304299  .00000016  00000-0  74993-5 0  9994
2 61596  87.9085  32.2454 0002710  64.3145 295.8266 13.17648025 68424
Epoch: 2026-02-04T12:33Z
TLE epoch observation values (Epoch: 2026-02-04T12:33:10.914Z)
Latitude
-0.00003°
Longitude
69.26152°
Altitude
1,195.722 km
Speed
7.256 km/s
True Right ascension
02h 08m 58s
True Declination
0° 00' 00"
Sunlit
Object was in daylight at epoch
Visualization orbit readout
Latitude
Unknown
Longitude
Unknown
Altitude
Unknown
Speed
Unknown
Apparent Right ascension
Unknown
Apparent Declination
Unknown
Sunlit
N/A
Visualization observer readout
Local Sidereal Time
06:08:28
Azimuth
Unknown
Elevation
Unknown
Doppler factor
Unknown
Orbital elements
Apogee altitude
1,192.877 km
Perigee altitude
1,188.775 km
Semi-major axis
7,568.963 km
Eccentricity
0.00027
Inclination
87.9085°
RAAN
32.2454°
Arg. of periapsis
64.3145°
True anomaly
295.79864°
Mean anomaly
295.8266°
Eccentric anomaly
295.81262°
Mean motion
3.29601 °/min
Orbital period
109.22 mins
BSTAR
0.0000074993
Loading maneuver chart data...
Computing Atmospheric mass density...
Loading historical data...
Loading historical data...
Loading historical data...
Loading historical data...
Loading historical data...
Loading historical data...
Loading historical data...

Documentation

Showing up to 5 results
|